Location: Juzet
(42.9779°N, 0.7597°E)
Time: 18:38:53
(UTC+00:00)

USA 238 DEB - Pass Details

Date: 14 July 2020
Orbit: 1010 x 1203 km, 63.4° (Epoch: 08 August)

Event Time Altitude Azimuth Distance (km) Brightness Sun altitude
Exits shadow 02:58:26 12° 187° (S) 2,654 5.3 -13.8°
Maximum altitude 03:04:15 47° 117° (ESE) 1,346 4.4 -13.1°
Drops below altitude 10° 03:10:43 10° 46° (NE) 2,901 7.5 -12.3°
Sets 03:13:30 0° 41° (NE) 3,888 8.8 -11.9°
